Tracking 25934 objects as of 11-Aug-2022
HD Live streaming from Space Station
objects crossing your sky now

ATLAS 2 CENTAUR R/B(2)

Track ATLAS 2 CENTAUR R/B(2) now!


NORAD ID: 23648
Int'l Code: 1995-038C
Perigee: 35,456.4 km
Apogee: 35,578.5 km
Inclination: 14.4 °
Period: 1,422.0 minutes
Semi major axis: 41888 km
RCS: Unknown
Launch date: July 31, 1995
Source: United States (US)
Launch site: AIR FORCE EASTERN TEST RANGE (AFETR)

Note: This is a ROCKET BODY
aabbcc
Your satellite tracking list
Your tracking list is empty




NASA's NSSDC Master Catalog

Two Line Element Set (TLE):
1 23648U 95038C   22222.03641222  .00000056  00000-0  00000-0 0  9999
2 23648  14.4465 356.4015 0014568 254.6628 105.2250  1.01265493 11839
Source of the keplerian elements: McCants